This is the latest recevied weather packets stored in our database for station/object SR6WXP. If no packets are shown the sender has not sent any weather packets the latest 1 day(s).
| Time | Temp. | Humidity | Pressure | Rain* | Wind** | Luminosity | Snow |
|---|---|---|---|---|---|---|---|
| 1777976539 | 22.22° C | 38% | 984.7 hPa | - | 2.24 m/s, 134° | - | - |
| 1777976496 | 22.22° C | 38% | 984.7 hPa | - | 2.68 m/s, 134° | - | - |
| 1777976299 | 22.22° C | 38% | 984.7 hPa | - | 2.68 m/s, 134° | - | - |
| 1777976059 | 22.22° C | 38% | 984.7 hPa | - | 3.13 m/s, 134° | - | - |
| 1777975817 | 22.22° C | 38% | 984.8 hPa | - | 2.68 m/s, 150° | - | - |
| 1777975577 | 22.22° C | 38% | 984.8 hPa | - | 2.68 m/s, 149° | - | - |
| 1777975089 | 22.22° C | 38% | 984.8 hPa | - | 4.02 m/s, 145° | - | - |
| 1777974846 | 22.22° C | 38% | 985 hPa | - | 2.68 m/s, 182° | - | - |
| 1777974603 | 22.22° C | 38% | 985 hPa | - | 2.24 m/s, 130° | - | - |
| 1777974363 | 22.22° C | 38% | 985.1 hPa | - | 4.02 m/s, 153° | - | - |
| 1777974123 | 22.22° C | 39% | 985.1 hPa | - | 3.58 m/s, 157° | - | - |
| 1777973883 | 22.22° C | 39% | 985.1 hPa | - | 3.58 m/s, 147° | - | - |
| 1777973641 | 22.22° C | 39% | 985.2 hPa | - | 4.02 m/s, 139° | - | - |
| 1777973401 | 22.22° C | 40% | 985.2 hPa | - | 2.68 m/s, 137° | - | - |
| 1777973161 | 22.22° C | 40% | 985.2 hPa | - | 3.13 m/s, 118° | - | - |
| 1777972921 | 22.22° C | 40% | 985.3 hPa | - | 3.13 m/s, 156° | - | - |
| 1777972681 | 22.22° C | 40% | 985.3 hPa | - | 3.13 m/s, 143° | - | - |
| 1777972439 | 21.67° C | 40% | 985.3 hPa | - | 2.68 m/s, 192° | - | - |
| 1777972199 | 21.67° C | 41% | 985.3 hPa | - | 2.24 m/s, 158° | - | - |
| 1777971959 | 21.67° C | 41% | 985.4 hPa | - | 2.68 m/s, 173° | - | - |
| 1777971719 | 21.67° C | 41% | 985.4 hPa | - | 2.68 m/s, 129° | - | - |
| 1777971480 | 21.67° C | 41% | 985.4 hPa | - | 4.02 m/s, 116° | - | - |
| 1777971238 | 21.67° C | 41% | 985.5 hPa | - | 2.68 m/s, 150° | - | - |
| 1777970998 | 21.67° C | 41% | 985.5 hPa | - | 2.24 m/s, 133° | - | - |
| 1777970757 | 21.11° C | 41% | 985.5 hPa | - | 2.68 m/s, 153° | - | - |
* Rain since midnight (hover to see other rain measurements)
** Current wind speed in m/s (hover to see current wind gust speed)